Theta_e
310 311 312 312 311 311 310 311 312 310 308 307 307 307 307 307 306 306 305 306 307 307 308 307 308 307 307 308 310 313 314 314 316 318 319 317 317 317 313 310 312 312 313 314 313 314 313 312 313 311 315 315 312 313 311 313 322 333 340 330 323 324 323 322 318 316 321 321 316 314 314 316 316 313 310 308 312 316 313 313 312 308 307 307 307 305 308 322
310 311 311 311 311 311 310 310 311 310 308 306 306 306 307 307 306 306 306 306 307 307 308 308 307 307 308 310 312 314 314 316 317 316 317 316 315 317 313 310 312 314 314 314 314 314 314 315 311 311 319 318 311 314 315 312 320 336 334 326 330 331 321 319 319 315 316 317 317 315 313 314 315 314 311 312 317 316 314 316 314 313 312 307 307 308 313 322
310 310 310 311 311 311 311 309 310 310 308 307 306 307 306 306 306 306 306 307 307 307 307 308 307 307 309 312 313 314 314 315 317 316 315 314 315 315 312 311 314 314 315 314 315 313 314 315 309 313 323 320 313 316 322 316 316 325 325 327 336 331 319 316 318 318 315 314 318 316 312 314 313 312 312 314 318 316 317 319 315 316 318 313 310 313 319 322
309 310 310 310 310 311 310 309 309 309 308 306 306 306 306 306 306 306 307 307 307 307 307 308 308 309 311 313 314 314 315 313 313 315 313 313 314 312 311 313 315 315 315 314 314 314 313 312 310 317 321 320 321 321 320 316 315 318 322 326 327 321 318 317 317 319 316 313 317 317 313 314 312 312 314 315 317 317 319 319 317 317 321 317 310 314 322 321
309 309 309 309 310 310 310 309 309 309 308 307 306 305 306 306 306 307 308 307 308 308 308 308 309 311 313 314 315 314 316 313 311 313 313 312 311 311 313 314 316 316 315 315 314 313 312 310 313 321 322 320 326 323 316 313 314 317 317 318 319 317 316 317 316 317 315 312 316 318 314 313 311 313 316 316 316 318 319 317 317 316 316 315 310 313 320 320
309 309 309 309 309 309 309 309 309 309 307 306 307 306 306 307 307 307 307 308 308 308 309 310 311 313 313 315 315 314 315 313 312 313 312 311 311 312 314 315 316 316 315 316 313 312 313 314 316 324 324 320 321 319 315 312 312 318 317 313 317 317 315 315 315 315 313 314 318 317 314 313 314 315 315 314 315 317 315 311 313 311 307 308 307 310 317 320
308 308 309 308 309 310 309 310 309 309 308 307 308 307 307 307 307 307 307 308 308 309 310 311 313 313 314 315 314 316 319 316 313 314 312 311 312 313 314 315 316 316 315 314 313 314 318 319 319 323 324 319 316 315 316 313 315 322 319 314 315 314 313 314 313 313 312 316 317 314 312 314 317 315 311 313 316 316 310 303 303 304 302 304 307 309 314 319
308 308 309 307 309 310 308 309 310 310 310 309 309 308 308 308 307 308 307 308 309 310 311 312 313 313 315 315 316 320 320 318 315 313 311 311 313 314 315 316 316 315 315 313 313 315 317 318 317 318 320 317 314 315 314 314 319 322 318 316 315 314 314 313 313 315 314 314 313 312 314 315 315 312 311 316 318 317 309 302 302 302 303 306 310 311 309 313
308 307 308 308 309 308 307 309 309 310 310 310 310 308 308 308 307 308 308 309 310 311 311 312 313 314 316 314 315 318 316 317 316 313 311 312 313 314 315 316 316 316 314 313 312 312 314 317 316 315 317 315 314 316 315 316 317 317 318 318 316 315 316 313 314 317 316 314 312 314 317 314 311 310 315 318 318 316 309 308 311 310 313 314 312 309 305 308
309 308 308 310 309 308 308 309 309 309 309 310 310 309 307 307 308 308 309 310 311 312 312 313 313 314 315 313 313 313 314 318 317 312 311 312 313 314 316 316 316 316 314 313 312 312 314 316 313 311 315 316 314 315 315 316 315 316 319 318 318 318 316 314 315 317 315 315 314 315 317 314 310 311 317 317 313 311 312 315 314 313 318 316 311 307 304 305
310 309 309 309 309 308 309 310 309 308 309 310 310 310 307 307 309 309 310 311 312 312 312 313 314 314 314 316 319 315 315 320 317 313 311 311 313 313 315 316 316 316 314 313 312 312 313 312 308 308 314 314 315 316 313 313 313 315 320 318 320 322 316 316 317 316 315 315 314 314 315 314 311 313 317 316 309 308 315 319 317 317 319 315 312 308 304 304
311 311 311 310 310 309 309 310 309 308 309 310 310 310 307 308 310 310 311 312 312 312 313 314 314 315 313 316 323 318 316 320 317 313 311 311 313 314 315 316 316 316 314 313 312 313 312 310 310 314 316 313 316 317 313 312 312 315 319 317 322 327 320 316 316 315 315 314 314 314 315 318 315 315 317 315 309 309 315 320 320 320 319 315 312 309 305 303
313 312 312 311 311 310 310 310 309 309 310 310 310 308 307 308 310 311 312 313 313 313 313 314 315 315 313 315 318 317 317 319 317 313 312 312 313 314 315 315 315 315 314 314 313 312 312 311 313 316 315 317 318 312 313 316 315 316 317 319 323 327 321 315 314 314 314 314 313 314 317 324 325 320 316 312 310 312 316 320 320 320 319 316 313 311 308 304
314 313 312 312 312 312 312 311 311 311 310 310 308 307 307 309 311 312 312 313 313 313 314 315 315 314 313 314 315 316 318 318 317 314 312 313 313 314 314 314 315 314 315 315 313 312 312 311 313 314 312 316 315 310 320 324 321 319 314 322 326 320 320 319 315 315 313 313 313 313 317 323 326 323 316 309 309 312 317 319 318 319 318 315 313 311 310 305
314 314 313 313 312 312 312 312 312 311 310 309 308 308 309 309 311 312 313 313 314 314 314 315 315 316 318 316 313 315 317 317 317 314 313 314 314 314 313 314 315 314 315 314 314 313 313 312 316 319 313 312 313 317 328 327 326 324 314 326 327 317 327 327 315 315 315 312 312 313 318 320 320 321 315 308 307 310 316 318 316 317 316 314 313 311 310 306
314 314 313 314 313 312 312 312 312 311 310 308 307 310 310 311 312 312 314 314 315 315 315 315 313 315 318 315 313 314 315 317 316 313 314 314 314 315 313 314 314 314 314 313 315 313 313 316 316 315 314 315 321 331 335 326 329 329 318 324 326 319 327 323 313 314 314 312 312 312 318 322 320 320 315 307 308 311 317 320 317 316 314 312 311 309 308 307
316 315 314 314 313 312 312 311 312 312 310 308 309 311 311 312 312 313 315 315 316 314 313 314 311 310 311 310 313 314 314 316 315 314 314 313 315 315 313 314 312 312 314 313 315 315 314 317 314 312 319 322 325 333 332 322 326 330 322 321 324 321 321 320 318 314 311 312 314 313 315 319 320 319 315 311 312 314 317 320 318 314 311 310 309 307 307 307
318 317 316 314 313 313 312 311 311 311 310 308 310 312 312 313 312 314 316 314 312 311 311 312 309 311 311 309 312 314 314 315 314 314 314 314 314 314 314 313 310 312 319 318 315 316 317 320 319 320 325 323 323 328 329 326 328 330 326 323 323 320 317 322 324 315 310 313 315 315 315 315 316 315 313 313 313 315 315 314 313 311 310 310 308 308 307 306
319 318 317 316 314 313 312 311 311 311 310 309 312 313 312 312 313 315 315 312 312 310 310 312 309 312 313 310 312 314 314 314 314 314 313 314 312 314 314 312 314 317 320 322 317 317 321 323 324 322 323 323 322 323 327 329 328 329 334 335 329 322 319 323 325 317 312 313 316 316 315 315 314 313 314 313 314 314 314 312 310 310 309 309 308 307 307 307
320 319 318 317 316 314 313 312 311 311 310 311 314 311 309 313 313 313 314 315 315 311 314 316 311 312 313 313 315 314 314 314 314 315 313 312 313 315 314 313 323 325 323 327 321 316 319 324 326 324 324 326 323 321 323 325 323 325 332 333 328 323 323 325 323 318 312 313 320 319 315 316 313 313 313 311 312 313 313 312 311 311 310 309 309 309 308 307
321 320 319 319 318 316 314 313 312 312 311 312 312 307 309 313 309 308 312 315 312 308 315 317 310 311 312 312 314 313 315 317 314 313 313 312 313 316 317 317 325 325 322 324 321 317 321 324 325 324 322 323 322 321 322 322 324 328 326 323 325 324 325 324 318 317 314 315 321 320 317 317 314 312 312 311 312 313 313 313 313 313 311 310 311 310 309 308
321 321 320 319 319 317 315 314 313 312 311 311 311 308 309 311 309 308 310 313 311 306 312 313 310 314 312 310 314 313 316 320 317 315 314 312 313 316 320 323 325 323 319 318 320 323 325 325 323 320 318 319 319 319 321 322 325 331 325 320 324 324 322 319 315 315 315 314 321 322 318 317 315 313 313 312 313 313 313 313 314 314 313 312 312 311 310 310
322 321 321 320 319 318 316 315 314 312 311 311 311 310 311 312 312 311 310 312 313 310 313 316 314 316 315 311 314 315 317 320 320 318 314 312 315 317 320 324 326 323 319 319 324 325 324 325 321 315 317 320 318 318 321 321 323 328 325 323 325 324 320 318 316 316 314 314 319 321 317 316 315 315 314 313 313 314 312 312 312 311 312 312 312 312 312 311
322 321 321 321 319 318 317 316 316 314 311 310 311 311 313 315 313 312 312 313 314 315 314 313 313 316 318 312 312 317 319 318 320 319 314 314 317 316 318 324 324 321 319 321 323 322 322 320 313 311 316 323 321 318 319 320 322 323 323 324 325 324 322 319 319 319 318 316 315 317 321 322 323 323 322 321 318 317 315 314 314 312 310 310 311 311 310 311
320 321 321 321 320 318 316 316 315 314 312 311 310 311 314 316 312 311 314 313 312 315 310 306 311 316 315 311 313 318 317 316 319 317 312 314 317 315 315 319 321 322 321 320 319 321 322 315 311 315 316 321 324 321 322 323 323 323 323 323 321 321 321 320 320 321 324 325 317 315 322 331 334 330 326 326 325 321 319 318 318 315 312 312 312 311 310 310
319 320 320 321 320 317 316 316 314 313 314 311 310 311 312 316 314 310 313 315 313 315 311 307 311 313 310 313 315 315 314 314 314 312 311 312 315 314 316 315 316 321 321 319 318 320 320 313 315 321 318 319 321 321 322 320 322 324 321 320 317 316 318 319 320 320 326 328 316 312 321 328 329 323 320 324 324 320 319 319 317 315 314 314 314 313 312 311
317 319 320 320 319 318 318 318 314 313 314 312 310 310 311 315 314 309 313 316 313 314 314 311 309 309 311 312 312 310 311 313 311 311 312 313 312 312 317 317 314 318 318 317 319 319 318 315 316 322 323 321 319 323 322 316 323 327 319 319 318 316 320 321 319 319 325 325 317 318 325 325 324 321 321 322 324 324 324 322 319 316 315 315 314 313 313 313
315 316 318 319 318 319 319 317 315 313 313 312 310 309 312 314 312 310 314 315 313 312 313 313 309 309 313 311 311 312 312 313 314 313 310 311 312 312 319 320 317 319 317 317 320 316 316 320 319 319 323 323 321 326 321 315 323 324 314 317 319 319 323 324 323 323 323 322 322 322 321 322 327 329 327 322 321 323 325 324 320 318 319 318 318 318 315 314
314 315 317 318 318 318 318 317 316 315 314 312 310 310 313 312 310 310 313 312 313 312 311 312 309 311 315 311 312 315 313 314 315 313 310 311 312 312 316 319 318 318 314 316 320 314 313 316 317 319 322 323 322 319 314 316 321 315 310 315 318 320 323 325 328 327 326 327 325 324 321 319 325 332 332 323 320 324 324 322 319 318 323 323 323 324 320 318
313 314 316 317 317 317 317 317 316 315 316 314 310 312 314 313 310 310 311 310 312 313 310 311 310 314 317 313 314 315 314 316 316 314 314 314 315 314 313 313 318 321 318 318 320 315 312 310 312 318 319 319 319 313 310 317 318 312 317 323 322 324 325 326 328 325 328 330 323 323 323 317 321 331 330 320 322 330 325 323 324 323 328 330 330 331 326 325
310 313 315 316 316 316 316 316 316 316 316 314 312 313 314 315 313 310 310 309 309 312 312 312 312 314 316 314 316 315 315 317 316 316 317 315 316 318 315 313 319 326 324 321 320 316 313 313 316 317 315 316 318 316 312 312 312 316 329 330 324 326 325 325 328 325 329 329 320 319 319 317 320 328 328 322 323 326 321 323 329 330 334 336 336 332 326 326
308 310 313 315 316 316 316 316 316 316 315 313 313 315 313 312 312 311 309 308 310 314 315 316 314 314 315 314 315 315 316 318 315 316 320 318 317 317 317 317 318 322 321 319 320 317 316 319 319 314 312 316 323 322 316 313 314 321 330 327 323 326 324 324 329 327 328 322 314 315 319 319 320 320 320 321 321 321 317 317 323 327 330 331 330 326 321 322
307 307 310 313 314 315 316 316 316 316 315 313 315 317 315 314 315 312 310 310 313 315 315 317 317 315 315 314 316 315 315 317 315 316 318 318 318 317 318 320 317 318 320 317 317 319 320 320 316 313 314 317 320 322 320 319 319 322 326 325 325 326 324 326 328 323 322 318 312 311 317 321 321 320 320 318 316 317 316 314 315 317 320 320 318 317 316 314
306 306 307 309 311 313 314 315 316 315 314 313 316 317 316 317 319 315 312 310 313 316 316 317 316 315 314 316 317 315 314 316 315 317 318 317 319 320 320 319 315 320 326 319 316 319 320 319 317 316 317 317 316 317 321 322 319 320 323 322 324 327 326 327 329 326 322 323 316 310 316 326 326 322 321 318 316 318 317 316 315 314 313 313 313 314 315 313
305 305 306 306 308 311 313 314 315 315 313 313 315 315 314 318 320 318 315 310 314 319 318 316 317 316 315 317 318 314 313 315 314 316 318 318 320 320 320 318 314 319 324 317 317 318 316 319 321 316 315 316 316 317 321 321 318 319 321 321 322 325 324 320 319 321 322 324 322 316 320 326 324 320 318 317 320 324 322 318 318 319 316 313 314 315 315 313
305 304 305 306 306 309 311 314 315 314 314 313 313 314 315 316 316 317 316 311 314 320 317 317 320 319 317 317 318 314 313 316 316 316 318 317 319 319 317 318 315 315 316 313 319 320 317 319 318 314 314 314 315 318 319 319 317 318 320 321 319 319 326 324 314 311 314 317 322 322 322 321 318 318 319 318 320 324 323 322 323 323 320 318 318 318 320 318
304 304 305 306 306 307 310 313 314 313 314 314 313 315 314 313 314 315 315 312 313 317 316 317 318 319 318 317 318 317 315 317 316 317 319 317 319 320 317 318 316 313 313 311 317 321 320 321 316 313 316 313 310 316 319 317 316 320 322 321 317 315 323 327 320 320 320 321 326 324 321 319 319 319 320 319 320 320 320 321 321 320 320 322 320 318 322 320
304 304 305 306 305 306 309 313 314 312 313 313 314 315 314 314 315 315 315 314 314 314 315 316 315 317 319 318 319 317 315 317 317 316 318 316 318 319 317 318 317 314 313 311 314 319 318 319 317 313 316 314 310 315 320 315 312 318 322 320 320 322 324 323 322 326 326 325 331 330 321 317 319 321 319 319 325 328 323 320 319 320 319 319 318 319 323 322
304 306 308 308 305 305 308 313 313 311 312 313 314 315 314 314 313 315 317 316 314 314 313 314 312 314 319 318 318 318 315 317 317 316 317 316 317 318 315 316 317 314 313 311 314 318 316 316 319 313 311 314 314 316 321 318 313 314 316 315 318 324 325 323 321 323 322 323 328 329 324 319 320 324 322 317 324 332 331 327 327 329 324 321 322 327 334 337
304 307 309 308 306 307 310 313 313 312 313 314 314 315 315 314 312 314 318 316 315 315 314 314 313 313 318 317 317 319 317 316 316 316 317 316 316 318 315 315 317 316 314 311 313 318 315 314 318 315 311 315 319 318 318 319 317 316 317 318 318 319 321 322 320 320 324 328 329 327 322 318 319 322 323 320 322 324 330 335 334 333 329 328 330 335 345 343
304 306 307 307 308 309 311 314 313 313 314 314 314 314 314 314 313 313 315 316 316 316 314 315 314 313 317 316 315 318 318 317 316 316 318 316 315 318 316 314 318 318 315 313 313 316 317 316 319 320 316 318 320 317 314 316 317 317 318 318 318 318 319 320 319 319 321 325 326 325 322 319 321 324 323 323 323 319 322 328 329 330 333 335 333 336 344 340
303 303 305 307 310 311 313 315 314 313 314 314 314 314 314 314 314 313 313 314 314 314 314 316 316 315 318 317 315 317 318 318 316 315 318 317 314 317 317 314 316 316 315 315 315 315 320 321 322 323 321 320 316 311 310 314 317 317 318 318 318 317 317 319 320 321 320 319 318 321 324 321 320 327 326 323 323 320 320 321 320 325 334 338 335 333 331 328
303 303 304 305 309 313 314 314 315 314 314 314 312 313 314 314 314 313 313 313 314 314 314 315 316 316 317 316 315 317 318 317 317 316 317 318 315 314 317 316 315 315 315 317 317 317 319 320 318 321 326 324 318 312 310 311 314 317 318 318 318 317 316 319 321 320 321 322 320 321 324 321 319 326 324 320 320 320 322 320 317 320 328 332 334 336 329 324
303 304 304 303 305 311 313 313 314 314 314 313 312 313 313 313 314 313 313 313 313 314 314 314 315 316 316 316 316 317 318 317 317 317 316 318 317 314 317 318 315 314 315 317 318 315 317 320 319 319 323 324 321 318 315 313 314 318 320 318 316 316 317 319 319 317 319 323 323 322 322 320 321 322 319 319 320 320 321 319 317 319 323 324 326 330 331 327
303 303 304 303 303 307 310 310 311 313 313 313 313 313 313 313 314 313 313 313 313 314 315 314 315 316 316 317 317 317 318 317 319 319 316 319 320 316 317 317 314 314 314 315 315 314 316 319 318 317 319 320 319 320 319 318 316 317 322 321 317 316 319 319 318 318 319 322 322 320 319 317 320 322 320 321 321 322 323 322 320 318 319 322 325 327 330 329
302 302 303 304 303 305 307 306 307 310 312 312 312 313 313 313 313 313 313 313 312 313 314 315 316 316 315 316 317 317 317 317 319 319 318 320 321 318 316 315 313 314 316 315 315 317 321 320 316 316 318 317 316 317 320 322 320 318 320 321 317 316 317 318 318 319 320 320 319 318 318 317 318 321 325 327 325 325 324 323 323 321 317 321 324 323 322 319
302 301 302 303 304 304 304 305 306 308 310 311 312 312 312 313 313 313 313 313 313 312 313 314 315 315 316 316 316 317 317 317 318 318 318 319 319 317 315 312 313 314 315 316 316 319 323 321 317 317 317 316 316 316 319 322 320 319 319 318 317 316 316 318 319 319 319 320 319 318 317 318 317 316 323 329 328 326 325 323 324 322 320 321 320 318 320 318
301 301 303 304 304 304 304 304 305 306 308 310 311 311 312 312 312 313 313 313 313 313 314 315 315 315 316 316 316 317 317 317 317 317 317 317 317 316 315 315 316 314 314 315 315 317 321 320 318 319 318 317 316 315 319 321 318 318 319 318 317 316 316 317 318 318 319 319 319 318 318 318 317 315 316 321 324 327 326 323 319 315 317 322 321 322 325 324
300 301 302 302 303 305 304 304 305 306 306 307 308 310 311 312 312 312 313 313 314 313 313 315 315 314 315 315 316 317 317 317 318 316 316 316 316 316 316 318 317 314 313 314 315 317 319 318 318 319 318 318 317 317 319 320 318 318 318 317 317 316 315 316 317 317 318 318 318 318 319 318 316 315 316 317 321 324 322 319 316 316 320 325 325 324 324 322
300 300 301 301 303 303 303 302 304 306 306 306 307 308 309 310 311 312 312 313 313 313 313 314 315 314 314 315 315 316 316 316 317 317 316 316 316 316 316 317 317 315 313 314 316 317 316 318 320 319 318 319 318 318 318 317 317 318 317 317 317 316 315 315 317 317 317 318 318 317 319 318 315 317 319 320 320 319 318 318 319 321 324 325 324 322 321 321
299 299 301 302 302 302 302 302 303 304 305 306 307 307 307 309 310 311 312 312 312 313 313 313 314 314 314 314 314 315 315 315 316 316 316 316 316 316 316 317 318 318 315 315 317 318 316 318 320 318 318 320 319 319 319 316 316 316 316 318 318 316 316 315 315 317 317 318 318 318 318 318 317 318 321 323 323 320 319 319 319 320 322 322 321 320 319 320
299 299 300 301 301 301 302 303 303 303 303 304 306 307 307 308 309 310 311 311 311 312 313 313 313 313 314 314 314 314 314 314 315 314 315 316 316 317 318 319 318 320 320 317 317 319 318 317 318 318 319 320 319 319 319 317 318 319 317 318 317 315 315 315 315 316 316 316 318 318 318 316 318 323 322 322 323 322 320 319 318 319 319 319 318 317 317 318
Wind_Speed
2 2 2 2 1 2 2 3 3 1 0 1 1 1 1 0 1 1 1 1 1 1 1 1 2 3 3 4 4 4 3 3 2 3 4 2 2 3 4 4 3 4 4 3 3 1 0 3 6 5 5 4 5 2 3 3 3 4 3 4 2 3 4 6 8 7 4 2 5 4 3 6 3 2 1 0 3 3 0 2 2 2 4 4 3 3 8 21
1 2 2 1 2 1 1 1 2 1 0 1 1 1 1 1 1 0 1 1 1 1 1 1 2 3 3 4 3 4 4 3 3 4 4 1 1 2 3 3 3 4 3 3 3 3 2 2 5 6 5 3 3 2 2 2 3 4 3 3 3 5 5 5 7 6 2 1 5 3 2 4 4 3 2 2 3 4 1 4 3 4 5 2 1 4 14 21
2 2 1 1 1 2 1 1 1 1 1 1 1 1 1 1 1 1 0 0 1 1 1 2 2 3 3 4 4 4 3 3 3 3 2 1 1 2 3 3 3 3 3 3 3 4 4 1 3 5 5 4 2 2 3 4 2 2 3 2 5 6 4 3 6 6 4 2 6 4 2 1 2 3 2 3 1 2 3 5 2 5 7 4 4 10 16 18
2 1 1 2 1 1 1 0 1 1 1 2 2 2 2 1 2 1 1 1 1 1 1 1 2 3 3 3 4 3 3 4 2 0 2 2 2 4 4 3 3 4 4 4 3 4 4 4 6 6 4 3 4 3 3 3 1 2 3 3 4 3 1 2 6 5 4 3 5 5 3 1 2 2 2 5 2 3 6 6 7 8 8 6 6 11 16 17
2 1 1 1 0 1 1 1 0 0 1 3 3 3 3 2 2 2 1 2 2 1 0 1 1 3 3 3 3 3 4 5 1 0 2 2 4 5 5 4 4 3 3 4 3 4 5 4 7 6 5 2 4 4 2 3 2 3 1 3 4 2 2 1 4 4 3 3 5 6 5 3 2 2 2 7 5 5 5 5 8 8 5 7 9 13 15 15
3 2 1 1 1 1 2 1 1 1 1 2 3 3 3 2 3 2 2 3 2 2 1 1 2 2 2 3 3 2 4 2 2 1 2 4 6 5 6 4 4 3 3 3 3 4 4 5 7 4 3 3 2 3 0 4 2 3 1 1 3 3 1 1 2 2 3 5 6 5 4 3 4 1 2 6 8 7 5 3 5 5 4 7 11 14 14 13
4 3 2 2 1 1 2 2 2 2 1 1 2 3 3 3 3 3 3 3 3 3 2 2 2 2 2 2 1 4 4 0 2 3 4 5 6 5 6 4 4 4 3 4 4 4 4 6 6 3 4 4 1 2 1 4 3 5 1 1 2 2 0 2 1 1 3 5 5 4 3 3 4 3 1 4 11 8 4 2 3 5 4 7 10 12 14 15
4 4 3 2 1 1 0 1 2 3 2 1 1 2 3 3 4 4 4 4 4 3 3 3 3 2 2 2 2 4 3 1 2 5 5 6 5 5 5 5 5 4 5 7 4 5 4 5 5 4 4 2 3 2 1 2 5 5 2 2 1 0 2 1 2 3 1 2 2 3 4 2 4 3 0 8 12 7 4 1 1 2 4 7 8 10 13 14
4 4 3 2 1 1 0 1 1 1 2 2 2 1 2 2 4 4 4 5 5 4 4 4 3 3 3 3 5 3 2 1 3 6 6 6 5 5 5 5 6 4 7 9 5 6 3 2 4 4 4 3 4 2 2 2 1 1 3 2 2 1 4 2 3 4 2 0 1 2 1 3 3 1 3 9 8 4 2 1 3 3 5 7 8 9 12 12
2 2 3 2 1 0 0 1 1 1 2 2 3 2 2 1 3 3 4 5 5 5 4 4 3 4 4 3 6 2 2 1 4 6 6 6 5 5 5 6 6 5 8 9 7 6 4 5 5 5 6 3 3 2 2 2 2 2 3 3 4 1 3 1 3 3 2 0 1 2 1 3 2 1 4 5 3 3 1 1 2 3 5 6 6 7 11 12
2 2 1 1 0 1 1 1 2 2 2 3 4 3 2 0 2 2 3 4 5 5 5 4 4 4 4 5 6 3 1 3 4 5 6 5 5 5 6 7 6 7 8 9 8 7 6 9 10 6 3 1 3 3 2 1 2 2 3 3 5 5 1 2 3 3 2 1 0 2 1 3 2 1 5 3 3 3 2 4 2 2 5 5 5 6 8 12
3 4 4 3 2 3 2 1 2 2 3 4 4 4 2 1 2 3 4 4 5 5 5 4 4 4 4 5 3 4 2 3 4 5 5 5 5 6 8 7 6 6 6 7 6 5 7 10 10 6 1 3 3 2 1 2 3 1 2 2 6 8 3 3 2 3 2 1 1 2 1 4 3 7 7 2 3 3 1 5 5 4 5 4 5 5 6 11
2 3 4 4 4 3 2 2 2 3 3 3 4 4 3 2 3 4 4 5 5 6 5 5 4 4 4 2 1 4 3 2 4 6 6 6 6 7 8 8 8 7 7 9 8 7 8 7 8 8 3 5 3 1 4 4 3 0 3 3 3 6 4 4 3 4 0 1 3 1 2 6 7 11 7 4 3 1 3 6 5 5 5 4 4 4 6 10
1 2 2 3 4 4 3 3 3 4 4 4 4 4 3 4 4 3 4 5 5 6 5 5 4 4 4 1 2 2 2 3 5 7 7 6 7 9 9 9 9 9 9 11 11 10 9 7 10 9 3 4 3 2 4 5 3 1 2 2 2 1 4 5 3 2 2 0 5 2 3 6 9 11 7 4 2 1 5 7 5 5 5 5 5 5 6 8
1 1 2 2 3 3 4 4 4 5 5 4 4 4 4 5 4 3 4 5 5 6 5 5 4 4 3 1 1 2 2 4 6 7 7 7 7 7 8 9 9 11 11 11 12 11 8 7 9 6 1 2 3 4 4 4 4 3 1 1 3 1 4 7 2 1 2 2 5 3 3 6 9 10 5 3 2 3 6 8 6 6 6 6 5 6 6 7
1 1 1 2 3 3 3 5 5 6 5 4 4 5 5 5 5 5 6 6 6 6 5 4 3 4 3 0 1 1 1 5 6 8 8 7 6 7 9 10 9 9 9 9 9 9 8 8 5 3 2 2 4 5 3 3 4 4 1 2 1 1 3 5 1 1 1 1 2 1 2 3 5 7 5 2 3 3 4 8 8 7 7 6 6 6 6 8
1 1 1 1 2 3 4 4 4 5 4 3 4 6 7 6 6 7 8 8 8 6 5 4 3 4 2 1 1 1 1 5 7 8 8 7 7 9 10 8 6 7 7 7 6 5 8 7 1 0 3 3 3 4 3 2 3 4 3 1 3 2 1 3 2 2 3 2 2 1 3 7 8 8 8 4 4 3 4 8 9 7 6 6 6 6 7 9
1 0 0 1 2 3 5 4 4 4 3 3 5 8 9 8 8 9 9 9 8 7 5 2 3 3 2 2 1 1 2 5 7 9 9 10 10 10 9 5 4 5 6 5 4 4 5 4 2 2 3 3 2 5 3 4 4 3 2 1 2 2 2 3 3 1 2 1 3 2 4 11 13 11 12 7 4 4 8 8 8 8 8 8 7 8 8 9
2 0 0 1 1 2 5 5 5 4 2 3 7 10 10 9 8 7 6 5 4 3 1 2 2 3 3 2 0 2 5 6 7 7 8 11 11 11 9 7 5 5 4 1 2 3 2 3 4 2 1 2 4 5 6 7 6 7 5 4 3 3 3 5 5 4 1 0 4 6 7 11 12 11 13 10 2 4 9 8 8 9 9 9 8 9 10 10
4 2 0 1 1 2 4 5 6 5 3 4 8 8 6 5 5 2 1 1 3 5 3 2 3 3 1 1 1 5 6 5 3 3 8 10 12 11 7 6 6 6 3 3 0 2 3 4 2 5 6 7 7 6 6 6 6 7 5 4 3 3 4 5 3 5 1 2 6 6 7 11 11 11 13 11 4 5 10 10 10 11 10 10 10 11 11 11
7 5 3 1 1 2 4 6 6 5 4 2 6 4 3 3 3 1 2 2 3 4 2 1 3 2 1 1 3 5 4 3 3 2 8 7 8 8 2 4 5 3 1 2 1 3 4 4 7 8 8 7 6 7 8 6 6 6 5 3 1 3 5 5 1 4 1 2 5 2 5 13 12 12 12 9 8 10 11 11 13 14 13 11 10 13 12 10
9 8 6 4 3 1 4 6 7 6 4 1 2 2 2 4 4 3 2 0 3 2 1 1 2 1 1 2 5 4 2 3 2 2 5 4 3 5 1 4 5 3 1 1 1 4 4 4 9 6 7 6 5 6 7 6 5 4 3 2 2 3 4 5 2 4 1 2 4 3 4 12 13 13 13 11 10 11 12 12 13 14 13 12 11 12 11 9
10 10 9 7 5 2 2 5 8 8 3 1 1 2 2 4 5 3 3 2 4 3 1 3 2 3 2 1 6 6 2 3 3 4 6 5 2 3 5 5 5 5 2 3 5 4 1 6 7 5 9 9 6 4 7 6 3 2 3 3 3 3 1 3 3 3 1 1 3 3 4 10 11 11 13 10 8 9 12 13 14 12 13 16 13 9 9 11
9 10 10 9 7 6 4 3 7 6 4 4 5 3 3 4 6 2 2 3 3 4 2 4 3 4 5 3 8 10 2 3 4 4 9 9 4 2 5 5 5 5 4 6 7 6 5 5 1 5 6 8 7 4 7 5 1 2 4 5 4 4 4 5 4 3 2 2 2 3 4 7 6 7 8 6 3 6 8 9 12 12 12 13 12 10 10 12
6 8 11 11 9 8 6 2 3 4 3 4 6 5 4 5 4 3 3 3 3 4 3 3 2 5 7 6 10 9 2 2 4 5 10 10 7 4 2 2 4 5 6 6 7 4 6 4 4 7 4 6 8 4 5 7 3 3 4 8 9 6 5 4 3 5 4 4 3 3 3 5 5 6 9 5 5 9 6 6 12 13 10 9 9 12 11 10
5 7 10 12 11 11 6 2 3 3 2 2 3 5 7 6 4 4 4 4 3 4 1 3 2 5 8 6 7 6 3 4 4 3 9 9 6 5 3 1 2 4 6 6 4 3 2 0 4 7 5 5 6 2 6 7 6 2 4 7 8 5 4 3 0 2 1 3 3 3 0 4 7 10 10 5 7 12 10 10 14 12 9 8 9 10 9 8
3 5 8 12 15 13 6 1 2 1 0 2 1 8 11 7 5 3 4 4 4 3 4 2 1 5 8 6 7 7 3 5 1 4 4 5 2 4 4 4 1 2 4 5 1 3 4 3 4 6 6 6 5 3 6 8 8 3 3 4 6 6 6 5 4 2 3 3 3 3 2 3 6 9 8 3 5 10 11 13 14 10 9 9 9 9 8 8
1 3 6 12 17 15 8 3 4 3 0 3 1 11 13 7 4 2 5 1 3 2 4 1 1 4 3 3 4 5 2 2 4 1 2 3 1 4 3 6 5 4 3 5 4 4 3 6 6 6 5 4 5 4 7 11 6 4 3 6 6 6 5 5 5 2 1 3 4 1 3 2 6 7 5 3 4 8 10 14 15 10 8 8 7 8 7 7
0 1 5 11 16 17 13 7 3 2 1 5 1 12 12 6 3 4 5 2 2 1 2 1 3 2 2 2 1 3 2 2 2 2 3 4 1 4 3 6 5 6 1 3 5 3 1 5 8 7 5 5 4 2 5 8 4 3 6 7 6 6 5 5 4 3 2 3 4 5 5 2 6 6 3 1 3 7 10 12 11 9 8 7 7 7 6 5
1 1 4 9 16 19 16 10 6 5 1 4 2 12 10 3 2 5 2 4 1 1 0 1 2 1 5 7 1 3 3 2 1 1 3 1 3 6 2 3 6 6 1 5 1 2 2 1 3 4 4 5 5 4 1 3 5 7 6 7 7 5 5 3 2 4 2 4 4 6 8 4 5 6 4 4 5 7 8 9 8 7 8 7 5 5 4 4
2 1 2 7 17 21 13 7 10 10 4 2 6 10 6 3 3 4 4 2 1 1 1 1 1 4 10 10 4 1 3 2 0 3 3 1 2 4 1 1 4 4 3 4 2 3 3 1 1 2 3 5 7 5 4 4 5 6 4 5 4 3 4 4 4 4 1 4 3 3 2 2 6 7 4 5 6 7 8 8 8 8 8 7 5 4 4 3
2 1 3 5 12 18 14 6 11 14 8 7 9 6 3 2 1 4 5 1 0 3 4 3 2 5 9 7 3 4 4 2 1 4 4 3 4 4 3 5 5 2 2 5 3 3 2 4 3 1 1 4 7 5 5 4 3 4 5 6 4 2 3 2 3 0 3 5 3 2 1 2 8 9 9 11 12 11 10 9 10 9 9 9 6 5 4 3
2 2 3 5 6 11 15 10 10 14 12 10 8 3 2 5 6 9 8 3 2 2 2 3 2 4 8 6 3 4 3 2 4 3 2 4 5 5 3 4 6 3 2 4 2 0 3 5 1 2 1 3 7 6 3 1 2 4 5 6 4 2 1 3 3 1 4 4 2 2 2 3 6 6 12 17 17 13 11 10 10 9 11 11 8 7 6 6
3 4 3 6 7 7 11 12 11 13 12 12 8 4 3 6 7 11 13 6 1 1 2 3 5 5 7 5 4 5 3 3 5 4 3 5 5 5 5 5 5 2 3 3 3 5 5 6 5 7 3 6 10 8 6 7 5 5 4 5 5 5 5 5 3 3 5 2 2 3 1 4 4 4 7 11 11 9 8 9 7 8 10 9 7 8 9 9
5 4 4 5 8 9 9 10 12 14 13 10 5 3 7 7 3 6 9 5 1 2 3 2 5 5 4 2 3 4 3 3 4 4 3 5 5 7 6 7 8 5 4 4 2 3 4 7 6 2 1 9 11 4 6 8 3 2 3 4 4 5 5 2 3 5 2 2 2 2 4 5 5 7 10 8 8 8 7 7 6 9 10 6 7 8 8 8
7 6 6 5 5 9 11 10 13 18 14 8 3 4 6 5 2 3 4 1 2 4 4 2 4 5 4 2 2 4 1 2 4 4 2 3 3 5 5 6 10 11 9 7 3 2 2 5 5 4 2 5 5 2 4 4 3 2 3 4 4 3 7 4 2 1 3 2 4 1 5 7 3 8 11 8 9 9 8 8 8 9 8 6 7 7 7 8
9 8 5 5 5 7 10 12 17 20 13 6 4 6 4 3 3 4 2 1 0 3 6 3 2 4 5 3 3 5 2 2 3 4 3 3 3 5 6 4 6 14 14 9 4 3 5 3 5 2 1 2 1 2 3 3 3 6 4 6 3 2 4 4 2 2 3 3 4 1 6 6 3 5 6 3 7 11 11 10 10 9 7 8 8 6 8 8
8 7 5 8 9 10 11 14 20 17 7 4 5 7 4 4 6 5 3 3 2 1 2 4 3 3 5 5 4 5 4 2 4 4 3 3 4 7 10 5 5 14 16 8 3 3 4 3 5 2 2 3 3 3 1 4 2 5 5 3 4 3 2 2 3 3 1 3 4 4 5 4 5 6 3 3 8 11 12 10 9 10 10 9 8 8 9 8
5 3 3 5 7 14 17 19 19 11 3 4 7 7 5 6 6 5 5 4 4 2 4 5 3 1 3 5 4 4 5 6 7 6 4 4 5 5 10 8 6 10 13 10 6 2 3 3 4 2 2 1 3 2 5 2 2 3 1 2 3 2 4 3 3 4 4 4 3 4 4 4 7 7 6 10 11 10 10 8 8 11 10 8 7 7 7 6
2 1 2 3 4 17 23 22 14 5 3 5 6 5 3 3 4 5 6 5 3 2 4 5 4 3 3 4 2 3 5 6 7 6 4 5 5 5 7 9 4 4 7 10 7 1 3 3 4 3 3 1 3 5 8 9 6 3 3 4 3 1 2 1 1 3 4 4 3 2 4 7 7 5 9 12 10 9 9 7 8 8 7 7 8 7 6 5
1 2 2 4 5 20 23 15 7 3 4 5 6 6 3 2 4 5 5 4 2 1 2 2 4 5 5 4 3 4 5 4 6 6 4 5 6 5 6 9 7 6 6 7 7 4 3 4 4 2 1 3 4 4 4 8 9 8 8 8 9 6 4 3 4 2 2 3 4 4 3 9 7 5 8 9 8 8 8 7 8 6 6 7 8 7 7 6
1 3 2 5 9 24 16 5 4 4 3 5 7 6 2 3 3 5 4 3 1 1 1 1 3 4 4 4 4 4 5 4 6 6 4 7 10 8 6 7 10 12 9 6 7 6 3 3 3 3 4 6 4 2 1 3 4 4 5 6 7 7 7 6 6 4 2 1 2 4 1 10 7 6 7 7 5 5 5 6 7 7 7 7 6 7 6 5
1 3 4 6 12 24 13 4 6 4 4 6 6 3 2 2 2 4 5 5 4 4 3 2 3 3 4 3 2 4 5 4 6 8 7 6 10 9 4 6 10 11 9 3 2 2 2 3 3 2 3 3 4 4 2 1 2 3 6 4 4 5 6 5 4 4 3 3 3 3 3 10 8 3 4 5 4 5 6 6 7 8 7 5 6 6 6 5
1 2 4 7 9 15 9 5 7 6 6 7 5 4 2 2 4 5 6 7 6 4 4 4 4 4 4 2 2 4 6 5 5 8 7 5 6 4 4 9 10 9 7 5 5 6 5 4 5 3 2 4 4 3 2 2 2 4 5 4 5 6 6 4 1 2 2 5 8 6 6 10 7 3 1 4 4 7 9 6 7 8 8 6 5 6 5 4
1 2 3 5 6 7 4 2 3 5 8 8 8 8 6 3 4 7 8 8 6 5 4 5 5 4 3 2 1 1 4 5 4 5 5 4 4 2 2 9 10 9 8 3 3 7 6 5 7 7 7 8 6 6 6 4 3 2 3 6 9 10 11 6 3 4 4 8 8 6 8 12 9 5 4 6 4 6 10 8 6 8 8 7 6 6 5 3
2 2 2 2 2 3 3 1 1 3 5 8 7 7 10 8 4 5 8 7 6 7 5 4 5 5 4 5 4 4 5 6 3 2 4 5 3 2 1 6 8 11 10 2 3 4 2 3 9 11 13 13 12 12 6 6 6 7 11 12 12 13 14 10 5 6 9 10 8 9 12 16 16 9 5 7 6 7 9 8 7 8 8 8 8 7 5 5
3 3 3 3 1 2 4 3 4 4 4 6 5 5 10 12 6 3 6 6 7 8 6 3 5 7 7 8 8 7 8 8 5 5 7 6 4 4 1 3 5 10 9 4 4 4 2 3 10 14 16 15 16 15 8 9 11 15 17 16 14 13 14 13 11 12 13 10 11 16 16 16 21 17 11 9 8 7 8 9 8 8 7 7 7 6 7 8
4 3 3 3 2 3 5 5 6 6 6 5 4 4 8 11 10 7 6 6 7 9 6 4 7 11 11 11 9 8 9 9 9 9 10 8 6 5 3 1 4 6 5 4 4 4 3 5 8 12 15 16 17 14 8 9 10 12 16 18 17 15 16 17 18 20 18 13 14 19 17 17 22 20 15 12 9 8 10 9 7 6 6 5 5 7 9 9
4 2 2 1 0 1 2 2 4 6 8 7 5 4 5 8 11 9 5 4 5 7 9 9 10 13 14 12 10 9 9 8 8 10 10 9 7 5 5 6 4 2 4 5 3 1 3 6 8 10 12 15 18 15 9 9 9 8 11 14 15 16 20 21 22 25 25 20 17 18 19 22 21 17 13 11 10 10 7 3 2 5 7 7 7 9 9 8
3 2 2 1 1 1 1 2 3 1 4 6 6 6 7 8 9 7 5 7 6 6 11 14 14 12 13 13 12 12 12 11 11 11 10 10 9 6 6 7 4 0 2 4 2 1 2 5 6 6 7 10 14 16 11 8 8 8 6 6 9 14 18 22 23 22 20 18 18 18 21 23 16 8 8 8 8 8 6 6 7 8 8 9 9 9 9 9
4 1 2 2 1 3 2 1 2 1 2 4 5 7 9 10 10 7 4 7 9 7 9 15 16 12 11 14 15 16 15 14 15 16 13 13 12 9 6 7 5 3 2 3 2 0 2 2 2 2 6 9 13 17 12 3 3 7 6 6 12 15 16 18 16 14 14 16 18 17 17 18 9 5 7 8 8 9 11 11 11 9 10 11 12 12 11 10
8 2 1 2 2 4 4 2 3 4 5 5 5 6 7 8 7 7 5 4 8 10 8 10 13 10 9 14 17 17 18 17 17 17 13 11 11 8 5 5 7 7 5 5 3 2 4 3 2 3 5 9 15 15 6 2 2 7 11 15 20 19 15 11 9 14 17 16 14 13 16 19 10 6 7 10 10 12 13 11 10 12 13 13 13 12 11 10
Wind_Direction
149 137 136 124 125 136 140 95 57 28 31 159 135 112 117 189 221 234 237 223 205 207 236 281 324 333 350 354 0 10 2 8 42 73 74 72 29 40 42 47 53 24 13 356 9 127 190 20 25 62 99 54 16 347 22 22 55 57 75 104 154 175 200 188 177 191 171 192 202 210 186 151 185 223 162 141 33 35 282 284 278 281 256 224 257 291 169 164
151 142 143 98 83 89 122 124 83 65 75 231 180 163 161 172 197 217 250 258 230 237 279 309 338 340 358 4 3 6 359 21 74 72 64 75 347 42 58 57 51 24 19 26 38 69 84 351 2 57 68 46 355 350 37 4 52 83 108 116 207 194 204 196 171 182 169 146 169 161 143 156 183 173 140 202 319 5 254 271 316 300 269 208 180 158 158 163
176 142 139 117 85 63 81 173 143 114 141 189 199 186 169 168 168 129 168 215 222 246 286 319 337 350 12 10 3 4 10 56 63 51 54 65 81 103 95 77 63 44 33 47 55 55 85 106 50 67 57 54 6 1 47 8 24 128 118 129 237 208 213 218 178 188 201 153 140 146 145 158 197 170 161 189 245 353 220 239 231 254 249 201 146 151 158 166
189 160 168 161 132 59 52 136 162 185 169 177 185 188 178 160 147 132 131 145 151 220 272 332 343 4 23 11 6 1 34 64 47 333 64 70 117 122 111 101 77 56 45 54 65 58 78 89 67 64 65 52 343 16 55 349 324 122 109 172 232 199 155 212 196 201 200 160 139 141 129 151 212 169 149 153 160 272 240 228 211 227 228 194 169 163 166 172
189 183 161 136 111 30 15 347 230 256 207 183 172 179 173 160 157 149 147 148 143 145 163 0 17 25 30 19 6 347 37 65 247 235 78 116 122 121 115 99 77 62 51 53 71 82 76 68 60 50 57 51 349 29 46 317 74 81 53 185 200 167 91 202 213 198 166 118 110 129 147 169 152 135 148 156 189 242 228 218 214 224 207 179 175 171 174 179
190 182 157 126 64 21 15 355 336 320 249 189 169 176 169 168 171 163 160 145 138 141 136 106 72 50 48 33 4 17 72 87 249 135 114 130 121 121 111 91 77 65 54 71 77 85 70 46 56 51 54 57 8 61 58 306 41 93 336 245 209 200 74 345 256 198 145 120 134 159 173 131 109 187 188 176 218 230 203 197 211 235 229 188 169 167 178 187
192 170 169 159 80 10 16 10 355 346 315 235 184 181 172 176 174 169 164 146 144 146 134 118 90 79 71 60 33 52 79 203 246 138 137 126 124 120 102 86 83 72 78 93 80 99 82 56 79 123 84 71 177 111 17 314 33 90 118 287 209 197 350 313 296 139 145 148 185 184 129 124 154 193 107 218 239 239 220 236 243 248 228 184 166 174 189 193
193 175 176 158 109 333 58 44 15 1 345 326 306 204 196 190 175 168 165 156 149 145 134 119 105 102 93 112 106 48 31 269 176 143 138 129 121 106 103 92 90 87 84 76 85 136 106 72 124 152 84 88 166 115 352 358 37 71 139 217 140 279 312 323 89 83 109 161 207 131 112 196 205 169 157 245 247 253 246 296 341 204 166 177 182 192 198 199
195 188 179 161 212 235 189 76 53 3 349 349 343 281 238 204 180 173 167 158 148 148 134 119 117 107 116 119 95 73 301 271 155 149 136 136 109 89 102 95 93 94 83 70 80 130 129 142 179 178 140 150 136 87 344 73 67 120 140 164 111 345 327 17 90 47 19 0 70 133 82 296 242 170 264 252 252 281 262 81 59 127 156 192 200 203 202 205
186 190 183 194 231 245 265 43 24 349 13 0 350 334 288 235 190 176 165 155 146 145 129 123 125 107 132 127 89 103 267 67 151 154 136 140 110 87 92 91 93 97 90 74 75 94 120 169 176 153 135 121 107 65 351 85 143 133 122 134 95 12 305 68 110 19 353 67 25 184 235 300 310 305 257 258 291 328 238 167 44 151 194 215 216 220 213 216
56 50 92 169 124 33 39 16 327 337 0 359 356 342 324 265 171 167 156 149 141 135 124 122 120 113 124 108 105 177 233 87 149 150 139 142 110 93 88 86 94 103 101 80 77 84 109 151 148 129 117 117 105 43 3 98 113 95 126 136 9 355 305 69 87 358 348 129 114 142 211 296 8 270 234 257 330 353 200 234 287 224 237 239 235 245 227 230
49 40 38 46 56 48 45 12 327 339 337 346 349 339 358 76 141 153 149 144 139 128 127 125 116 128 106 75 116 186 161 99 146 144 144 135 107 95 82 80 87 98 113 95 86 93 120 149 129 100 91 140 122 41 106 97 84 73 89 132 334 358 10 355 29 327 342 134 265 99 323 286 230 231 242 315 335 25 58 255 278 259 258 260 250 259 240 241
74 56 36 34 38 40 38 11 355 350 345 353 349 351 26 94 127 142 150 146 141 129 131 129 120 126 105 69 167 159 140 122 150 149 140 129 107 92 84 85 89 91 106 101 93 97 125 152 114 105 119 111 122 166 114 54 49 277 35 96 345 6 346 325 9 333 303 132 337 44 268 272 248 249 261 329 331 13 300 264 266 264 264 268 258 260 253 246
75 78 47 37 36 31 28 20 5 356 4 14 9 21 66 107 121 137 143 140 137 130 130 126 129 120 98 190 187 129 167 146 148 154 143 139 117 98 92 92 95 98 96 93 88 86 108 124 99 100 94 86 132 118 54 15 25 38 19 56 29 35 279 305 349 343 169 162 6 84 226 271 269 268 272 311 324 185 260 265 262 265 266 268 264 258 257 247
61 72 40 35 30 26 29 30 28 21 24 27 34 59 93 110 118 120 123 130 127 124 128 125 132 118 77 289 191 105 174 153 146 154 147 148 132 108 103 105 104 101 94 89 88 82 91 102 82 79 66 30 83 79 33 0 24 37 48 323 0 137 270 308 331 136 170 322 19 101 226 277 272 271 280 316 31 144 246 269 273 271 268 265 265 256 258 258
85 59 23 29 9 1 17 26 29 28 28 31 54 87 101 108 117 117 119 116 111 114 114 109 118 117 95 299 158 87 155 148 144 148 146 154 149 129 122 116 104 99 98 91 90 80 64 70 65 69 122 66 74 84 50 18 0 356 76 205 260 141 286 316 340 292 322 339 358 113 225 277 275 271 287 327 101 125 251 272 273 267 267 263 257 256 257 264
127 53 356 9 351 342 343 356 16 18 19 36 83 106 106 108 113 114 115 107 103 99 88 100 112 100 95 166 180 276 134 136 144 145 141 142 145 139 128 111 97 104 98 82 83 56 33 47 81 40 57 60 90 93 66 358 294 318 33 147 233 191 225 300 304 319 24 68 245 261 229 250 266 277 286 282 139 148 250 265 271 267 263 259 252 257 253 255
108 51 346 343 327 331 325 327 351 359 7 57 102 113 109 109 113 117 120 113 101 79 69 86 87 75 265 230 185 223 102 125 136 135 135 131 136 141 130 105 105 99 67 47 42 29 19 30 62 73 33 19 77 99 131 216 211 190 171 146 246 241 220 257 269 278 30 50 238 253 253 256 265 277 283 279 155 193 255 260 271 272 262 259 252 251 249 248
158 145 12 325 310 325 318 323 341 342 0 94 118 117 108 101 103 115 117 111 112 100 125 217 131 136 216 258 328 94 98 120 131 133 135 130 130 126 106 89 91 81 75 67 11 21 48 47 56 107 180 221 189 158 171 192 158 149 168 145 161 218 246 240 249 269 233 198 259 241 244 259 266 273 279 281 167 209 266 274 272 269 261 258 251 249 249 245
196 178 288 306 286 333 328 331 342 343 5 112 134 122 109 94 67 51 336 334 175 149 128 192 176 136 133 335 62 112 106 106 114 143 141 139 135 118 77 42 44 50 87 163 195 5 73 96 170 203 203 202 197 167 142 148 121 116 121 112 157 202 267 257 255 291 248 182 262 243 253 269 267 268 270 279 299 270 269 271 267 263 257 254 249 250 247 242
219 203 203 223 249 336 332 326 331 335 345 128 149 133 148 150 85 39 273 290 226 161 111 159 149 114 125 173 166 143 115 67 34 138 151 152 144 136 47 20 71 60 296 185 180 6 67 138 223 222 198 185 170 138 118 107 85 89 121 124 238 217 252 256 237 306 323 184 270 314 292 274 267 268 266 269 282 271 258 256 260 258 256 254 249 251 251 250
240 228 220 212 200 296 328 321 325 326 323 253 168 138 165 157 116 103 122 337 270 218 151 126 97 290 227 173 189 165 72 65 22 278 176 148 124 168 180 64 121 172 274 115 103 23 47 218 239 213 157 115 95 116 111 102 91 80 112 127 271 250 267 283 311 330 358 182 273 351 309 277 274 270 264 253 248 254 252 246 251 255 258 257 249 249 254 260
242 240 238 227 205 199 299 318 328 329 318 272 233 153 112 127 127 103 89 99 289 295 144 171 199 228 211 243 195 163 97 158 181 258 198 150 91 175 136 104 132 142 141 180 159 130 147 251 251 183 144 110 81 93 101 98 93 99 132 142 252 257 269 283 298 322 332 177 278 327 301 278 277 272 267 257 240 253 259 252 254 253 254 257 256 255 251 252
236 239 243 237 219 196 201 297 319 319 311 283 250 195 122 131 144 132 73 73 299 293 237 202 201 193 190 204 177 161 145 185 172 213 188 156 123 147 144 138 126 125 188 190 157 165 216 247 191 117 131 119 109 117 121 133 217 250 177 172 220 231 210 237 282 319 322 7 357 332 306 284 282 282 276 286 301 275 259 255 262 255 247 257 266 264 248 244
235 233 238 239 228 200 194 252 284 287 303 286 251 209 156 155 153 121 83 55 312 299 296 219 204 205 188 151 160 162 122 219 217 204 179 161 142 133 147 142 127 168 193 148 134 196 245 237 125 106 95 104 118 154 174 162 184 282 229 203 214 212 204 237 329 5 358 341 345 6 314 285 303 290 267 280 307 281 261 254 263 261 253 250 255 257 250 244
237 228 230 236 224 194 185 236 254 273 291 286 260 201 181 170 144 124 89 52 302 278 260 181 172 192 180 147 156 144 84 260 255 157 163 168 151 116 133 143 67 184 175 133 141 210 233 344 89 120 128 115 120 186 224 169 133 287 248 209 207 179 167 209 311 19 313 269 299 39 66 276 304 289 268 275 288 280 284 278 267 266 263 250 244 251 251 246
238 221 220 229 218 194 179 196 199 200 139 337 307 184 186 178 151 144 76 37 289 222 154 199 180 163 173 171 160 137 176 243 101 99 146 163 166 72 121 173 100 188 173 125 172 238 169 121 74 111 109 112 140 211 224 159 128 236 245 155 156 158 179 187 155 191 238 270 316 36 119 257 286 277 277 309 293 285 290 283 274 268 260 255 253 252 249 246
227 206 200 218 219 208 206 193 156 154 43 357 251 181 180 178 169 109 84 86 281 156 137 243 151 132 145 159 129 111 202 222 108 200 346 82 154 50 103 193 173 172 172 136 197 252 160 165 176 150 111 135 184 221 197 153 133 242 208 122 132 146 158 138 126 170 329 348 308 271 136 251 266 267 301 341 293 284 281 274 275 278 271 264 263 260 256 252
219 180 176 208 219 214 217 220 160 152 336 10 122 179 171 174 185 67 84 190 266 114 133 110 129 116 71 121 94 59 44 28 97 249 357 71 82 50 135 198 144 134 108 107 186 242 117 191 191 152 137 190 202 276 192 157 146 193 138 100 83 81 82 85 104 117 54 328 254 196 170 223 269 270 293 329 257 258 262 265 270 280 282 275 270 270 273 276
22 124 155 191 204 205 209 218 211 194 241 350 164 171 162 146 115 91 128 221 216 143 223 121 168 165 127 142 220 7 51 19 24 34 23 72 23 28 121 157 91 112 20 19 117 240 312 269 200 147 160 183 138 66 47 123 130 140 117 79 62 43 43 54 51 79 63 292 258 201 188 193 272 271 233 214 219 214 231 262 277 285 285 278 271 266 269 277
26 180 171 179 196 202 198 203 210 201 206 219 165 157 144 59 79 146 197 227 62 156 139 148 187 136 148 158 177 162 89 28 312 116 108 158 52 42 82 112 75 74 359 328 304 304 334 349 242 198 156 128 101 69 31 51 100 108 94 88 82 359 13 26 354 49 119 255 263 244 215 174 245 259 245 241 253 233 220 241 260 268 272 270 267 261 257 261
15 261 220 188 200 207 205 208 205 199 199 178 154 134 126 116 117 215 211 91 17 212 166 173 194 153 163 161 143 161 138 88 193 153 143 149 156 171 181 178 161 93 288 239 255 330 285 231 245 305 153 138 116 83 38 12 25 77 100 107 99 339 0 348 305 92 222 250 251 244 236 214 243 261 271 264 259 249 232 229 237 248 259 266 269 268 264 257
355 321 243 223 224 211 210 219 210 202 200 176 149 77 84 168 198 215 207 180 206 230 119 117 99 125 150 150 159 167 139 163 186 168 146 133 161 214 256 217 181 157 205 191 162 224 273 295 267 145 258 193 154 144 137 194 193 145 147 139 134 138 163 251 264 278 264 270 286 252 219 250 268 272 257 251 250 246 239 238 236 240 253 263 274 280 279 268
322 324 290 240 244 230 213 216 213 203 185 158 136 81 137 188 202 202 207 212 196 22 32 92 87 103 146 165 208 176 144 212 181 144 140 134 154 216 242 237 212 121 98 143 155 179 218 280 214 174 205 188 182 185 158 144 161 184 160 138 157 165 172 214 213 214 250 281 313 279 226 202 217 259 251 245 260 265 256 258 258 255 255 260 276 282 279 274
314 305 305 265 240 237 225 213 205 193 167 140 122 133 175 202 214 197 208 212 151 60 15 42 89 115 180 270 287 194 162 210 172 129 154 164 179 202 198 206 200 158 137 182 214 166 200 261 247 248 239 170 180 195 124 116 142 212 122 116 192 192 151 160 193 178 183 331 311 240 233 219 210 275 275 254 269 277 265 272 273 264 262 260 266 267 269 274
318 315 301 281 244 228 222 215 197 181 159 128 129 183 197 218 208 190 222 215 144 128 103 53 75 119 197 245 273 228 173 106 146 142 192 206 221 210 201 213 196 181 179 184 199 144 166 275 293 345 350 169 181 197 131 139 174 162 144 178 210 165 118 113 219 125 79 266 272 202 248 278 313 283 271 254 265 274 272 269 255 254 267 269 258 255 259 263
324 331 306 261 252 214 204 206 189 174 157 123 163 197 204 232 200 189 228 0 144 136 128 163 184 152 185 197 208 215 197 82 150 174 197 204 244 210 203 240 197 192 201 194 208 198 161 255 302 45 174 264 292 118 74 20 124 134 183 204 171 106 101 113 184 358 43 240 272 257 240 275 309 276 292 296 258 260 259 257 257 264 267 258 256 255 261 264
331 331 301 268 249 208 189 192 179 165 145 132 193 210 192 199 204 183 170 138 113 147 175 205 204 158 172 192 206 188 171 176 176 187 191 191 246 208 183 209 206 201 208 194 215 247 160 225 302 41 189 288 0 111 108 351 52 138 189 183 117 146 184 113 161 190 213 233 269 284 265 257 223 233 280 244 231 241 247 249 258 264 254 247 255 255 261 273
336 339 304 288 227 197 183 175 169 156 127 167 202 217 197 203 205 166 161 155 120 141 209 227 224 166 169 180 178 160 176 188 172 179 189 183 238 217 178 194 217 207 202 180 188 238 135 203 271 328 250 288 31 162 191 217 30 62 122 109 87 169 175 168 164 167 191 204 230 291 309 264 225 206 199 218 224 224 230 238 244 249 245 236 238 243 252 264
351 82 286 323 191 186 174 162 160 157 167 195 211 212 185 192 196 182 184 169 132 157 202 220 218 213 204 182 167 172 185 190 174 185 207 188 222 247 193 189 191 180 180 174 188 193 92 201 239 313 323 180 176 218 196 176 160 147 162 167 190 195 119 183 211 132 152 167 182 247 277 266 249 193 189 216 227 217 212 221 232 243 250 240 227 224 229 234
41 106 274 323 179 175 165 156 166 182 189 212 225 221 198 146 172 202 196 138 109 185 156 188 212 208 196 190 207 191 171 180 182 187 218 206 211 242 213 188 162 123 122 156 195 202 165 193 188 159 239 196 212 251 205 185 182 178 185 192 195 183 152 193 234 209 125 145 177 176 241 270 257 183 196 216 218 216 216 227 239 240 239 242 241 230 219 217
103 163 295 341 178 173 166 165 185 177 206 215 217 220 185 103 138 182 180 132 130 190 121 183 220 208 187 190 210 185 162 182 190 187 218 218 212 223 226 192 161 146 141 160 201 200 147 118 144 183 217 213 233 303 293 216 198 183 208 206 194 192 182 186 210 213 157 147 180 125 203 267 251 179 202 222 209 222 239 243 252 251 231 224 243 260 258 244
154 211 292 322 191 179 176 205 192 184 226 221 224 226 139 107 155 164 173 184 182 181 195 205 188 202 213 196 177 177 182 195 191 197 218 228 227 227 196 163 157 150 149 154 200 187 117 114 173 242 291 307 319 337 8 40 124 210 242 209 167 201 199 179 179 178 161 174 180 128 226 260 262 197 212 244 250 256 255 236 235 254 258 233 228 247 259 267
134 201 281 297 229 199 193 197 196 202 215 219 228 219 199 198 178 166 177 189 184 173 198 216 198 207 223 182 135 194 203 205 207 212 215 223 243 241 153 166 168 161 177 188 180 180 178 182 179 185 287 315 325 318 307 282 202 223 245 196 170 188 166 127 104 134 178 213 196 188 232 251 270 343 291 261 273 269 261 240 219 238 256 256 254 250 237 255
149 169 244 276 266 240 226 195 198 215 215 219 223 213 219 231 186 184 187 186 184 167 178 212 197 184 190 157 131 238 207 208 232 234 224 227 257 317 169 188 181 187 216 221 161 175 181 189 179 180 213 228 227 222 219 215 192 210 240 198 192 189 169 164 194 175 218 233 206 200 240 250 268 332 321 271 267 266 261 250 229 236 245 247 254 257 244 231
168 189 214 250 264 241 257 299 195 228 222 218 223 215 216 227 216 191 193 193 193 186 194 207 166 159 188 193 209 242 228 227 242 245 235 232 251 314 242 194 190 210 222 186 124 159 154 208 199 197 210 215 222 228 199 131 145 196 217 206 199 197 186 184 195 195 216 234 232 227 236 250 260 269 276 264 247 241 254 257 243 239 240 239 239 240 240 233
206 206 182 187 211 208 246 256 205 216 229 208 206 203 211 221 228 201 198 201 190 188 210 226 167 174 190 194 214 229 222 227 237 245 249 244 255 298 327 148 210 232 227 193 164 148 108 236 218 216 223 222 229 232 192 151 180 201 209 208 201 196 187 188 206 215 215 223 243 238 229 242 255 251 240 242 238 235 248 252 245 239 232 235 248 254 249 245
211 220 193 191 196 188 215 225 202 212 235 231 223 213 209 213 215 210 200 198 195 191 203 221 201 201 197 189 203 220 212 216 226 232 244 248 252 285 314 241 230 229 211 207 202 161 167 230 223 225 235 237 243 242 193 175 201 204 205 208 200 189 187 195 211 220 218 215 234 241 232 232 246 249 239 228 220 224 233 232 237 256 256 243 246 253 254 257
197 235 268 215 111 185 178 142 149 197 224 232 239 237 224 214 214 213 184 177 209 201 201 219 215 210 210 200 199 214 210 206 218 224 232 244 242 248 269 265 259 189 164 196 236 177 176 227 228 226 238 244 250 250 213 194 218 221 213 212 201 190 191 199 212 220 222 224 232 244 248 244 244 245 239 226 212 217 234 254 242 249 255 248 242 245 252 259
175 182 211 97 53 214 110 92 107 165 222 220 226 235 238 234 230 226 186 185 209 198 197 218 223 211 210 209 208 220 217 207 218 221 213 223 231 221 227 241 244 75 141 175 240 327 199 233 243 237 248 254 255 256 241 207 219 240 243 227 210 201 202 209 216 220 224 231 237 242 252 257 252 228 219 222 213 217 243 264 249 241 244 247 248 248 249 252
197 95 125 112 232 223 223 202 169 180 228 208 217 230 236 238 235 239 235 210 216 217 198 212 226 223 211 213 215 224 225 217 222 225 211 207 218 214 213 222 201 158 143 161 152 121 193 242 298 253 248 251 249 254 254 198 197 249 256 232 215 211 212 215 218 221 219 224 233 237 247 256 249 161 193 215 201 210 227 233 239 245 243 240 242 243 244 249
206 269 131 146 220 205 206 221 183 196 230 220 214 227 238 248 238 232 251 231 219 234 226 211 225 231 220 221 221 223 229 226 226 234 227 215 225 220 194 191 177 161 163 171 159 151 172 191 230 208 225 247 246 250 257 106 204 248 240 228 221 216 218 221 228 233 224 216 221 225 235 246 237 157 196 215 197 209 222 218 224 238 238 237 238 239 240 245